Lynchburg, VA

9:47 AM EDT on April 20, 2018 (GMT -0400)
Lynchburg Regional-Glenn

Weather History for KLYH - October, 2012

Change the Weather History Date:

Monday, October 8, 2012

  Actual Average Record
Temperature  
Mean Temperature 45 °F 59 °F  
Max Temperature 48 °F 71 °F 90 °F (2007)
Min Temperature 41 °F 47 °F 27 °F (2001)
Degree Days  
Heating Degree Days 20 7  
Month to date heating degree days 48 49  
Since 1 July heating degree days 94 110  
Cooling Degree Days 0 1  
Month to date cooling degree days 11 8  
Year to date cooling degree days 1244 1024  
Moisture  
Dew Point 41 °F    
Average Humidity 88    
Maximum Humidity 100    
Minimum Humidity 76    
Precipitation  
Precipitation 0.04 in 0.10 in 2.31 in (1910)
Month to date precipitation 0.79 0.78  
Year to date precipitation 25.69 32.59  
Snow  
Snow 0.00 in - - ()
Month to date snowfall 0.0  
Since 1 July snowfall 0.0  
Since 1 September snowfall 0.0  
Snow Depth 0.00 in    
Sea Level Pressure  
Sea Level Pressure 30.21 in    
Wind  
Wind Speed 5 mph (NNE)    
Max Wind Speed 14 mph    
Max Gust Speed -    
Visibility 6 miles    
Events Fog , Rain    
T = Trace of Precipitation, MM = Missing Value Source: NWS Daily Summary

Daily Weather History Graph

Daily Weather History Graph

Search for Another Location

Airport or City:

Astronomy

Oct. 08, 2012 Rise Set
Actual Time 7:18 AM EDT 6:48 PM EDT
Civil Twilight 6:52 AM EDT 7:15 PM EDT
Nautical Twilight 6:22 AM EDT 7:45 PM EDT
Astronomical Twilight 5:52 AM EDT 8:15 PM EDT
Moon 12:05 AM EDT (10/8) 2:29 PM EDT (10/8)
Length of Visible Light 12h 22m
Length of Day
11h 30m
Waning Gibbous, 46% of the Moon is Illuminated
Oct 8
Waning Gibbous
Oct 15
New
Oct 21
First Quarter
Oct 29
Full
Nov 6
Last Quarter

Hourly Weather History & Observations

Time (EDT) Temp. Windchill Dew Point Humidity Pressure Visibility Wind Dir Wind Speed Gust Speed Precip Events Conditions
12:01 AM 39.2 °F - 39.2 °F 100% 30.19 in 0.2 mi Calm Calm - N/A Fog Fog
12:10 AM 39.2 °F - 39.2 °F 100% 30.19 in 0.5 mi Calm Calm - N/A Fog Fog
12:22 AM 39.2 °F - 39.2 °F 100% 30.19 in 1.0 mi Calm Calm - N/A   Mist
12:29 AM 39.2 °F - 39.2 °F 100% 30.18 in 1.0 mi Calm Calm - N/A   Mist
12:37 AM 39.2 °F 37.0 °F 39.2 °F 100% 30.18 in 0.5 mi North 3.5 mph - N/A Fog Fog
12:39 AM 39.2 °F 37.0 °F 39.2 °F 100% 30.18 in 0.2 mi North 3.5 mph - N/A Fog Fog
12:47 AM 42.8 °F 40.1 °F 42.8 °F 100% 30.18 in 0.5 mi NW 4.6 mph - N/A Fog Fog
12:54 AM 43.0 °F 41.3 °F 43.0 °F 100% 30.19 in 1.0 mi NNW 3.5 mph - N/A   Mist
1:06 AM 42.8 °F - 42.8 °F 100% 30.18 in 0.5 mi Calm Calm - N/A Fog Fog
1:15 AM 42.8 °F - 42.8 °F 100% 30.18 in 1.2 mi Calm Calm - N/A   Scattered Clouds
1:17 AM 42.8 °F 41.1 °F 42.8 °F 100% 30.19 in 2.0 mi North 3.5 mph - N/A   Scattered Clouds
1:25 AM 42.8 °F 41.1 °F 41.0 °F 93% 30.19 in 6.0 mi North 3.5 mph - N/A   Partly Cloudy
1:49 AM 41.0 °F 37.1 °F 41.0 °F 100% 30.19 in 1.8 mi North 5.8 mph - N/A   Scattered Clouds
1:52 AM 41.0 °F 36.4 °F 41.0 °F 100% 30.19 in 1.0 mi North 6.9 mph - N/A   Mist
1:54 AM 42.1 °F 38.4 °F 41.0 °F 96% 30.19 in 0.8 mi North 5.8 mph - N/A   Mist
2:00 AM 42.8 °F 38.6 °F 41.0 °F 93% 30.19 in 0.2 mi North 6.9 mph - N/A Fog Fog
2:16 AM 42.8 °F 40.1 °F 42.8 °F 100% 30.19 in 0.5 mi North 4.6 mph - N/A Fog Fog
2:54 AM 42.1 °F 40.2 °F 42.1 °F 100% 30.19 in 0.5 mi North 3.5 mph - N/A Fog Fog
3:04 AM 42.8 °F 40.1 °F 42.8 °F 100% 30.18 in 0.5 mi North 4.6 mph - N/A Fog Fog
3:34 AM 42.8 °F 40.1 °F 42.8 °F 100% 30.17 in 1.0 mi NNE 4.6 mph - N/A   Mist
3:39 AM 42.8 °F 40.1 °F 42.8 °F 100% 30.18 in 1.5 mi NNE 4.6 mph - N/A   Overcast
3:54 AM 43.0 °F - 43.0 °F 100% 30.20 in 1.5 mi Calm Calm - N/A   Overcast
4:14 AM 42.8 °F 40.1 °F 42.8 °F 100% 30.20 in 1.0 mi North 4.6 mph - N/A   Overcast
4:28 AM 42.8 °F 40.1 °F 42.8 °F 100% 30.21 in 2.0 mi North 4.6 mph - N/A   Mostly Cloudy
4:33 AM 42.8 °F 39.3 °F 42.8 °F 100% 30.20 in 7.0 mi North 5.8 mph - N/A   Mostly Cloudy
4:54 AM 43.0 °F 41.3 °F 42.1 °F 97% 30.22 in 10.0 mi North 3.5 mph - N/A   Mostly Cloudy
5:54 AM 43.0 °F 40.3 °F 41.0 °F 93% 30.22 in 10.0 mi North 4.6 mph - N/A   Mostly Cloudy
6:54 AM 44.1 °F 41.5 °F 41.0 °F 89% 30.24 in 10.0 mi North 4.6 mph - N/A   Overcast
7:54 AM 44.1 °F - 42.1 °F 93% 30.25 in 10.0 mi Calm Calm - N/A   Scattered Clouds
8:54 AM 45.0 °F 43.5 °F 39.9 °F 82% 30.26 in 10.0 mi Variable 3.5 mph - N/A   Overcast
9:54 AM 45.0 °F 41.8 °F 41.0 °F 86% 30.28 in 10.0 mi NNE 5.8 mph - 0.00 in   Overcast
10:54 AM 46.0 °F 43.9 °F 41.0 °F 83% 30.30 in 8.0 mi NE 4.6 mph - 0.00 in Rain Light Rain
11:54 AM 46.9 °F - 41.0 °F 80% 30.28 in 10.0 mi NE 8.1 mph - 0.01 in   Overcast
12:54 PM 46.9 °F - 39.9 °F 77% 30.28 in 10.0 mi NE 5.8 mph - 0.00 in   Overcast
1:54 PM 46.9 °F - 39.0 °F 74% 30.28 in 10.0 mi ENE 4.6 mph - N/A   Overcast
2:54 PM 46.0 °F 41.9 °F 41.0 °F 83% 30.25 in 9.0 mi NNE 8.1 mph - 0.03 in Rain Light Rain
3:54 PM 46.9 °F - 41.0 °F 80% 30.21 in 10.0 mi NNE 8.1 mph - 0.00 in   Overcast
4:54 PM 46.9 °F - 42.1 °F 83% 30.21 in 10.0 mi NNE 8.1 mph - N/A   Overcast
5:54 PM 48.0 °F - 42.1 °F 80% 30.20 in 10.0 mi NNE 8.1 mph - N/A   Overcast
6:54 PM 46.9 °F - 41.0 °F 80% 30.21 in 10.0 mi NE 4.6 mph - 0.00 in   Overcast
7:54 PM 46.9 °F - 41.0 °F 80% 30.22 in 10.0 mi NE 5.8 mph - 0.00 in   Overcast
8:54 PM 46.9 °F - 41.0 °F 80% 30.22 in 10.0 mi North 8.1 mph - N/A   Overcast
9:54 PM 45.0 °F 40.6 °F 41.0 °F 86% 30.23 in 10.0 mi North 8.1 mph - 0.00 in   Overcast
10:54 PM 44.1 °F 40.1 °F 41.0 °F 89% 30.23 in 10.0 mi NNE 6.9 mph - 0.00 in Rain Light Rain
11:54 PM 44.1 °F 40.8 °F 41.0 °F 89% 30.22 in 10.0 mi North 5.8 mph - 0.00 in   Overcast